Theta_e
354 352 350 346 346 349 349 349 350 350 350 350 348 349 350 349 350 351 349 348 347 345 345 348 350 349 347 347 350 353 352 350 347 342 338 334 334 336 332 330 332 333 331 330 332 334 335 334 332 332 333 334 336 338 337 335 331 328 326 325 325 324 324 323 321 320 321 321 320 319 321 323 325 325
355 353 351 349 347 348 347 346 349 350 351 350 347 348 350 348 348 351 348 349 351 348 346 348 350 348 348 350 350 351 352 348 342 344 343 335 338 341 337 333 333 335 334 330 329 329 331 332 331 329 329 331 334 336 338 337 335 331 327 325 325 325 324 323 322 320 321 321 320 319 320 322 325 326
355 352 352 352 351 350 349 348 350 349 349 348 345 347 350 347 347 349 346 346 350 348 346 349 349 349 350 350 348 348 349 344 342 347 345 337 341 347 344 339 337 337 335 332 330 328 327 328 329 328 328 328 331 333 336 338 337 333 328 326 325 325 325 323 322 320 321 322 320 319 319 320 323 326
354 353 351 351 349 350 350 349 350 349 349 350 348 347 351 349 345 344 341 341 344 344 342 345 347 347 348 349 349 348 347 346 349 349 342 340 347 352 349 343 339 340 340 336 333 331 328 327 327 327 328 327 329 331 333 336 338 335 330 327 326 325 325 323 321 320 321 321 321 320 319 319 322 324
357 354 352 350 347 346 346 346 349 351 351 352 352 350 350 350 348 346 343 343 342 340 339 340 342 343 344 345 347 350 349 349 350 346 341 345 353 356 355 347 343 344 344 340 337 333 331 328 327 327 328 328 329 331 332 334 338 337 332 328 326 325 325 324 321 321 321 321 321 321 319 319 320 322
354 356 353 349 345 344 343 343 347 351 351 351 352 351 349 348 348 347 348 350 346 340 338 340 341 343 346 348 351 353 350 343 340 338 340 348 355 355 354 350 345 347 347 343 339 336 335 332 329 329 329 329 330 331 332 334 337 339 335 330 327 326 325 324 322 320 321 321 321 321 320 319 319 321
346 351 352 348 345 346 347 345 346 349 351 351 351 351 350 348 347 348 349 349 348 343 340 340 340 343 349 353 352 349 345 341 340 338 340 347 351 354 356 352 346 349 351 347 341 338 338 337 333 332 332 331 331 332 334 335 337 340 338 333 328 326 325 323 322 321 320 321 321 321 320 319 318 319
341 343 345 345 346 349 352 352 350 349 349 350 350 350 350 349 349 350 349 350 350 347 343 339 336 338 341 343 341 338 339 343 348 349 347 344 341 347 356 355 349 352 355 350 344 343 343 341 339 337 336 335 333 333 335 337 338 340 340 336 330 325 325 324 322 321 320 320 321 320 320 320 318 318
340 341 342 344 347 350 351 351 351 351 350 350 349 350 350 350 349 349 349 350 350 348 343 337 336 335 334 334 333 334 335 339 345 349 350 347 340 343 352 354 350 351 352 349 346 347 346 345 343 342 341 339 337 336 336 337 339 340 340 338 332 326 324 324 322 321 320 320 321 321 320 321 319 318
337 339 339 341 344 348 348 348 349 352 353 352 349 349 350 350 350 350 349 348 348 348 346 341 336 334 333 334 335 337 343 346 346 346 346 346 344 345 352 356 353 350 350 350 350 349 349 348 348 348 345 342 339 337 337 337 339 341 341 340 335 328 324 324 323 322 321 320 321 321 321 321 319 318
336 337 336 337 338 340 343 344 345 349 354 354 350 349 350 351 351 351 352 352 352 352 351 346 341 338 338 343 347 350 355 356 354 349 347 347 348 350 356 358 356 353 353 353 351 351 353 353 352 351 348 345 341 338 338 337 338 340 340 341 339 330 324 325 323 322 321 320 320 321 321 320 320 318
342 344 344 343 343 341 341 340 340 344 350 352 351 349 350 352 352 351 352 354 355 355 354 353 352 352 353 356 357 356 355 354 352 351 352 353 355 356 357 357 356 357 357 354 350 350 353 354 354 352 350 347 342 338 339 340 340 340 340 341 341 335 327 325 324 322 321 321 320 321 321 320 320 318
346 347 347 347 346 346 346 344 343 342 344 348 351 351 352 353 352 352 352 353 353 354 354 355 356 358 358 357 355 352 349 349 350 352 354 354 354 355 355 354 356 357 355 353 353 351 352 354 354 352 350 348 343 339 340 343 343 343 341 341 342 339 330 325 325 323 322 321 320 321 321 320 319 319
346 346 346 346 345 344 345 344 345 345 344 344 346 349 351 352 352 352 353 354 353 353 352 352 351 352 351 350 351 351 351 351 351 353 354 352 353 354 354 353 353 349 344 348 353 352 350 352 353 351 350 348 344 341 342 345 347 347 344 342 343 342 333 326 325 324 322 322 321 321 321 320 320 319
342 343 343 344 344 343 343 343 343 343 343 343 343 343 345 347 349 350 350 351 351 350 350 350 348 349 349 350 352 353 352 351 350 350 350 350 352 353 352 350 346 338 336 346 353 351 348 350 352 350 350 349 348 346 346 348 348 349 347 343 343 343 337 327 325 325 323 323 322 321 322 321 320 319
337 338 338 339 340 340 341 342 341 341 342 342 342 340 339 338 339 342 343 343 343 343 345 346 347 348 349 350 351 351 350 350 349 347 346 345 345 344 343 341 336 333 337 344 349 345 339 341 344 346 349 352 351 350 350 349 348 349 348 345 342 344 339 329 325 325 324 323 322 322 322 321 321 320
334 336 337 337 336 336 337 337 339 339 340 340 339 339 338 337 336 336 335 335 335 336 338 341 342 342 343 343 341 339 340 342 341 341 338 335 333 331 331 331 333 336 340 344 344 338 332 335 340 344 351 353 352 350 350 349 349 349 348 345 342 344 341 331 325 325 324 323 323 322 322 321 321 320
338 338 339 339 338 336 335 335 335 337 338 339 340 339 341 341 339 336 333 331 330 330 332 335 336 335 336 336 333 332 333 334 334 333 330 328 327 327 329 332 334 337 337 337 340 337 333 338 343 346 350 352 350 350 350 348 349 349 348 346 344 345 344 335 326 324 324 324 323 322 322 322 322 321
340 341 343 344 344 343 341 339 338 338 337 337 339 340 341 342 340 337 332 329 328 328 327 329 330 331 332 332 332 331 332 331 330 329 327 327 328 329 330 331 331 331 329 331 339 340 339 342 344 346 350 352 349 348 349 349 349 349 348 347 345 345 345 342 332 325 324 324 323 323 323 322 322 321
340 340 340 342 345 347 348 348 346 344 341 338 338 339 339 339 339 336 331 329 330 329 328 327 327 328 329 330 331 330 331 332 331 331 333 333 332 331 331 329 327 328 326 331 343 348 345 344 345 347 351 352 350 349 349 348 349 349 347 347 347 346 346 345 339 328 323 324 323 323 323 322 321 321
346 344 343 342 341 343 345 346 348 348 348 345 342 341 341 340 339 337 334 332 330 328 327 326 326 327 328 329 330 330 331 332 332 334 338 339 337 337 338 335 332 331 327 329 340 347 346 345 346 349 352 353 351 350 349 348 348 349 348 347 348 347 346 346 343 334 325 323 324 323 323 323 321 320
349 348 348 347 346 344 343 343 343 345 348 349 348 345 344 344 344 342 342 342 338 332 331 330 331 334 335 336 336 335 333 333 333 333 335 336 336 338 340 337 333 332 327 325 332 339 341 341 344 347 351 353 351 350 350 350 349 349 349 348 348 348 347 345 345 338 329 324 324 324 323 323 322 321
350 349 349 349 350 349 349 347 345 344 345 348 349 349 348 347 346 345 346 349 347 343 340 338 338 339 339 339 340 339 337 336 336 336 335 334 334 335 335 333 333 334 329 322 325 333 338 341 343 346 348 351 351 350 350 350 350 350 349 349 348 348 347 345 344 341 333 325 324 324 324 324 324 322
351 350 350 350 350 351 351 351 351 350 348 347 347 350 351 350 347 345 345 348 348 347 346 344 342 342 343 343 343 344 342 340 339 340 340 338 336 334 333 332 333 333 328 321 324 333 339 342 344 346 347 348 350 350 349 350 351 350 350 349 348 348 348 346 344 342 336 327 324 324 324 324 324 323
352 352 351 351 350 351 351 352 352 353 353 352 351 351 351 350 349 348 347 347 346 347 347 347 347 347 347 348 347 345 344 342 339 340 340 340 338 337 335 334 332 332 328 325 328 334 339 341 342 345 346 347 348 349 349 350 350 351 350 350 349 349 348 347 345 343 339 331 325 324 325 324 324 324
355 355 354 354 354 354 355 355 355 355 356 356 355 354 353 351 350 350 350 349 349 349 348 348 348 349 349 350 348 345 344 343 342 341 340 341 340 338 337 335 334 333 331 329 331 336 341 344 346 345 346 347 348 350 350 350 351 351 351 350 350 349 349 348 345 344 342 335 327 324 324 324 323 324
357 356 356 355 357 357 358 359 359 359 360 359 359 358 357 356 354 352 351 351 351 351 350 349 350 351 351 352 351 347 344 342 342 341 341 340 340 339 339 339 338 336 334 334 336 339 342 345 347 347 347 348 349 350 351 350 350 350 351 351 351 350 349 347 346 344 343 338 331 326 324 324 324 324
358 357 356 355 355 356 356 357 357 358 360 361 361 360 360 359 358 356 354 352 352 352 351 350 349 350 352 353 354 351 348 347 345 345 345 346 347 347 347 346 346 344 343 343 342 342 341 340 341 344 346 347 347 349 349 350 351 351 352 352 351 350 349 347 344 342 341 340 336 330 326 324 324 324
357 358 357 357 355 353 353 354 354 355 357 359 361 361 360 360 360 358 357 355 354 353 352 351 348 347 346 348 349 349 349 349 350 350 350 350 350 350 350 349 348 348 347 347 345 344 342 340 338 339 342 343 344 345 346 348 350 352 352 352 351 351 349 347 344 342 340 339 338 335 329 325 324 324
354 355 356 357 356 355 354 353 352 351 353 356 359 359 360 359 359 359 359 357 356 354 353 351 348 345 342 341 342 344 345 346 347 347 348 348 348 348 349 349 349 348 348 347 346 344 342 341 340 340 342 343 344 345 345 347 350 351 352 353 352 350 348 346 344 341 339 339 338 337 333 328 325 324
352 351 354 356 357 357 357 356 354 353 353 354 356 358 359 360 358 358 358 358 356 355 353 351 348 345 342 342 342 342 343 343 341 340 342 344 343 344 347 349 350 348 347 346 346 345 341 340 341 343 344 344 343 344 346 348 350 351 351 353 353 352 350 348 344 341 339 338 338 337 336 332 329 325
356 354 355 356 356 357 357 355 354 354 355 354 354 355 357 358 359 358 358 357 357 356 355 353 351 348 345 344 343 343 344 343 342 341 341 342 341 341 343 347 349 348 346 346 346 345 342 341 342 344 345 345 345 345 347 350 351 352 352 352 353 354 353 350 346 342 339 338 338 337 337 335 331 327
357 357 357 357 357 357 356 355 354 354 354 354 355 355 356 357 358 358 358 358 358 357 357 355 354 351 348 346 344 345 346 346 346 345 345 345 345 343 343 344 344 345 347 347 346 346 345 346 346 347 348 349 348 348 350 352 353 352 352 352 353 354 354 352 348 343 339 338 339 339 337 335 333 329
356 357 357 357 357 356 356 356 355 354 354 355 356 357 357 358 359 358 359 358 357 357 356 356 355 353 351 349 347 347 347 347 348 348 348 349 349 349 349 347 344 343 345 347 347 346 346 349 352 353 354 355 354 352 352 353 353 353 353 353 353 352 353 353 350 345 342 340 339 339 337 336 334 331
357 357 357 356 356 355 355 356 355 355 354 354 356 359 360 359 360 360 359 358 356 355 355 354 353 352 351 349 348 348 348 348 348 349 349 350 352 353 353 352 349 347 345 345 345 345 347 351 355 356 357 357 357 355 354 351 351 352 353 353 353 351 352 352 350 346 344 342 339 337 336 336 335 333
357 358 357 357 357 356 355 355 355 355 354 353 355 358 360 360 361 360 359 357 357 356 356 354 353 352 350 349 348 348 349 350 350 350 350 351 353 354 355 355 354 352 350 348 347 347 350 352 355 356 357 357 357 356 353 347 346 350 352 353 353 352 352 352 349 346 345 344 340 337 336 337 337 335
358 358 358 357 356 356 356 356 355 355 356 355 356 358 360 361 360 361 360 358 357 356 356 356 355 354 353 352 350 349 350 351 352 352 352 352 353 355 356 356 356 356 354 353 352 352 354 355 356 356 357 357 357 355 349 344 345 349 351 353 353 352 353 352 350 347 345 344 342 339 338 338 337 335
357 358 359 358 356 355 356 356 355 355 355 357 358 358 359 360 360 360 360 359 358 357 356 356 356 356 356 356 354 353 353 353 353 354 354 353 354 355 356 356 357 358 357 357 356 356 357 357 357 357 357 357 357 354 348 345 346 346 346 350 352 353 353 353 351 349 348 345 342 340 339 338 336 335
354 355 357 357 356 355 356 357 357 356 356 357 358 359 359 360 360 360 360 360 359 358 357 357 357 357 357 357 357 356 356 356 355 355 356 355 355 355 355 356 356 357 357 357 356 356 357 357 357 357 356 354 354 352 349 349 350 348 347 348 351 352 353 353 353 352 349 346 343 339 336 335 335 334
353 353 354 355 356 357 358 358 358 357 356 357 358 359 359 359 359 359 359 359 359 358 356 356 357 357 357 357 357 357 357 358 358 357 356 356 356 356 355 355 354 353 354 353 352 354 356 357 356 355 354 353 352 353 353 353 353 352 350 348 350 352 353 353 352 352 350 347 343 339 336 335 334 334
355 356 356 357 358 359 359 359 359 358 357 357 358 359 359 358 357 356 355 356 356 356 356 357 357 357 357 357 358 358 357 357 357 357 357 356 356 356 356 355 354 354 354 353 353 352 353 352 353 355 354 353 353 355 354 354 353 352 351 350 351 353 353 353 352 351 350 348 344 339 336 335 335 335
354 356 357 358 358 359 359 359 359 358 358 358 359 359 359 358 355 353 351 349 349 351 352 354 355 356 356 356 356 356 356 356 357 357 357 356 356 356 356 357 356 355 355 354 354 352 351 352 354 356 356 355 355 355 353 350 350 350 351 351 352 352 353 352 351 350 349 347 344 340 337 335 335 335
353 354 354 355 356 357 357 358 358 357 358 358 358 359 358 358 357 355 352 349 349 351 353 354 355 357 357 356 354 354 354 355 356 356 357 357 357 357 357 357 357 356 355 355 355 354 354 355 357 357 356 356 355 353 350 347 347 349 351 352 352 352 352 351 349 349 348 346 343 341 339 337 336 335
353 353 353 353 353 354 354 355 356 356 357 357 358 358 358 357 356 355 354 353 353 354 356 356 357 358 359 357 356 356 356 356 356 356 356 357 358 358 358 358 357 357 356 356 356 355 355 356 357 357 356 355 354 352 350 348 348 349 351 352 352 352 352 350 347 346 346 345 342 339 337 336 335 335
351 352 352 353 353 353 353 353 354 355 355 355 356 357 357 357 355 354 355 356 355 356 356 358 358 358 358 358 358 357 357 357 357 357 357 357 357 358 358 358 357 357 357 356 355 355 355 356 357 356 356 355 354 353 351 350 350 351 352 352 351 351 350 349 346 344 345 344 341 338 336 335 334 333
Wind_Speed
6 6 6 7 9 10 10 7 5 6 7 8 9 6 4 6 4 4 3 5 5 3 3 5 4 7 7 6 8 9 9 11 11 12 13 13 13 13 13 15 16 16 18 19 18 17 17 18 18 19 19 19 19 20 20 20 21 21 22 23 23 24 23 22 21 21 22 23 25 25 25 23 19 17
7 8 6 6 7 8 9 7 4 7 8 8 9 8 3 6 6 5 7 6 3 4 5 1 4 7 8 6 6 6 9 13 11 10 13 14 12 12 13 15 16 16 17 19 19 18 18 19 19 19 20 20 20 20 20 21 21 22 22 23 24 24 23 22 20 20 21 23 24 25 24 23 20 18
7 9 9 9 8 7 7 7 6 9 10 8 8 9 5 8 8 6 9 9 6 8 9 1 5 4 5 6 6 6 8 11 11 11 14 14 13 13 14 16 17 16 17 18 19 19 19 19 19 20 20 20 20 20 20 21 21 22 22 22 23 23 22 21 20 20 21 22 23 24 24 23 21 19
6 8 10 11 11 10 10 11 10 9 11 9 8 9 9 10 9 8 9 10 9 9 11 8 5 3 4 6 7 9 10 10 10 12 14 13 12 13 15 17 17 16 18 19 19 19 19 19 19 19 20 20 20 20 20 20 21 21 21 22 22 22 22 21 19 19 20 21 22 23 23 23 22 20
9 9 9 10 10 10 11 12 13 10 9 10 8 9 10 10 10 9 7 9 10 10 11 11 9 8 10 9 8 10 11 9 10 12 13 11 11 13 15 17 18 17 18 19 20 19 19 19 19 19 19 19 19 20 20 20 20 21 21 21 22 22 22 21 19 19 20 20 21 22 22 23 22 20
11 10 10 10 10 10 10 11 12 11 9 10 10 9 10 11 10 10 8 10 12 12 10 9 9 8 8 7 8 10 12 12 11 10 9 9 10 13 16 16 17 17 18 19 20 20 18 18 19 18 19 19 19 19 19 20 20 20 21 21 21 22 21 21 19 19 19 19 20 21 22 22 21 20
11 12 12 12 10 10 11 11 11 12 11 11 11 11 11 10 9 9 11 12 13 14 13 11 9 7 6 9 12 13 14 13 12 11 10 8 8 12 16 17 16 17 17 19 21 19 17 18 18 18 18 19 19 18 18 19 19 20 21 21 21 21 21 20 19 18 18 18 19 20 21 21 20 20
12 13 13 13 11 11 12 12 12 12 13 14 14 14 14 13 12 12 12 12 13 15 15 13 11 11 10 12 14 14 14 12 11 12 12 12 10 10 14 17 16 16 17 20 20 18 17 18 19 18 17 19 19 18 17 19 19 20 21 20 20 21 21 20 19 17 17 17 18 19 20 20 20 19
13 14 14 14 13 13 14 14 14 14 13 15 16 16 16 17 18 18 17 16 16 17 17 15 13 13 14 14 14 13 12 12 11 11 11 13 14 12 13 16 16 16 18 19 19 18 18 19 19 18 17 18 20 19 17 19 20 19 20 20 20 20 20 19 18 17 16 16 17 18 19 19 19 18
15 15 15 15 15 15 16 16 16 15 14 15 16 16 16 17 17 18 18 18 18 19 19 17 16 16 16 16 15 13 12 12 12 12 12 14 14 13 13 16 16 17 17 18 18 19 19 18 18 19 18 18 21 20 18 18 19 19 20 20 20 19 19 19 17 16 15 15 16 16 17 18 17 17
16 16 16 16 16 17 18 17 17 16 16 17 17 17 17 17 16 16 16 17 17 18 19 19 18 18 16 15 13 10 9 11 14 16 16 14 11 9 12 15 17 18 17 18 19 20 19 18 18 18 17 18 21 22 19 17 18 19 19 20 20 19 18 18 17 16 14 14 15 15 15 16 16 16
18 17 17 18 18 18 18 18 17 17 18 19 19 18 17 18 19 19 18 17 17 18 18 18 17 17 15 13 13 12 11 13 16 16 15 13 10 9 13 15 15 16 17 19 21 21 19 18 18 18 17 18 21 22 19 15 16 18 19 20 20 18 17 16 16 15 13 13 13 13 14 14 14 15
19 19 19 19 19 20 20 20 19 18 18 19 20 19 18 18 20 20 20 20 20 19 19 19 18 17 17 16 17 16 14 14 14 13 13 13 12 13 14 14 12 13 17 19 21 22 21 20 20 19 19 19 20 22 18 14 15 18 20 20 19 17 16 15 14 14 12 11 11 11 12 12 13 13
22 21 21 21 20 20 22 23 23 22 21 21 21 21 21 20 21 21 22 22 23 22 22 23 22 22 22 20 17 15 14 13 13 12 13 13 12 11 14 16 17 17 16 17 19 21 22 23 23 22 20 19 21 22 19 15 16 19 21 21 19 17 16 14 13 13 12 10 10 10 10 10 11 12
26 25 24 23 22 22 23 24 25 25 25 25 24 24 24 24 24 24 24 25 24 24 23 23 23 23 22 19 16 15 15 14 13 14 14 13 12 13 17 21 22 20 16 14 16 19 21 23 24 23 22 20 20 21 19 16 18 20 21 21 19 17 15 13 13 12 11 10 9 9 8 8 9 11
29 29 28 27 25 24 24 25 26 27 28 28 29 29 28 27 27 27 28 28 27 27 26 24 23 23 21 19 17 17 16 15 16 17 18 18 19 20 22 23 22 20 17 15 17 19 20 21 22 22 21 20 20 20 19 18 19 19 20 20 19 17 15 13 12 12 11 9 8 8 7 7 8 10
32 31 31 30 29 27 25 25 26 28 29 29 30 29 28 27 27 28 29 31 31 30 30 29 28 27 25 24 23 22 21 21 21 22 22 22 23 22 22 22 21 20 18 18 20 22 20 18 19 19 18 19 20 20 20 19 19 18 19 19 17 16 15 13 12 11 10 9 8 7 6 5 6 8
30 30 30 31 32 31 30 28 28 28 29 29 29 29 29 29 28 28 29 30 32 33 34 34 33 32 30 30 29 27 25 25 24 24 24 24 23 22 21 21 20 19 20 21 22 23 20 16 17 17 16 17 19 19 20 19 18 17 18 18 16 16 16 14 12 11 10 8 7 7 5 5 5 6
30 29 29 29 30 31 32 31 30 30 30 31 31 31 31 32 33 33 32 31 32 33 35 36 35 34 33 32 31 30 29 28 27 26 25 24 23 22 22 22 21 21 21 20 20 21 19 16 18 19 17 16 17 17 19 19 18 19 19 17 16 16 16 15 13 11 9 8 7 6 5 4 5 5
32 32 32 31 31 30 31 31 30 30 31 32 34 34 35 36 37 38 36 33 32 32 33 35 35 34 33 32 31 31 30 30 28 27 27 25 25 25 25 26 25 23 22 19 17 19 20 19 21 20 18 18 17 17 18 19 20 21 20 17 15 15 16 16 14 11 9 8 7 6 5 4 4 3
32 33 34 35 35 35 34 33 32 31 30 32 34 36 37 37 38 39 37 34 33 32 32 32 32 32 32 31 30 30 30 30 30 30 29 28 27 27 27 28 27 26 25 21 18 19 20 20 20 19 18 19 18 16 18 20 21 21 19 16 15 15 15 16 15 12 9 7 6 5 5 4 3 2
32 32 33 34 36 37 38 37 37 35 34 33 34 36 37 38 39 38 36 35 34 34 32 31 30 29 28 28 27 27 28 29 29 31 33 32 30 30 30 31 30 29 28 24 20 20 21 20 19 17 17 17 18 19 20 20 20 20 18 17 16 16 16 15 14 13 10 8 6 5 5 4 2 1
35 34 34 34 35 36 37 38 38 39 38 38 37 37 38 39 40 39 36 35 34 33 33 32 31 31 30 29 29 28 29 29 30 32 33 32 33 34 34 34 32 32 31 25 21 21 21 19 18 18 17 18 19 20 20 19 19 19 19 19 18 17 17 15 13 12 11 9 7 6 6 5 4 2
36 35 34 34 35 35 36 37 38 38 39 41 41 39 39 40 41 40 38 37 35 34 34 34 33 33 33 32 32 31 31 31 30 31 32 32 32 34 35 35 34 35 33 26 21 21 20 18 18 19 19 19 20 20 20 19 19 20 21 21 19 18 18 16 13 12 12 11 9 7 6 6 6 4
35 35 34 33 33 34 35 36 36 37 37 38 40 41 42 43 42 41 40 39 37 35 35 35 35 35 34 34 34 34 33 33 32 32 32 31 31 31 33 34 34 35 31 23 20 23 22 19 19 19 20 21 21 21 22 21 21 22 22 21 20 20 19 17 15 14 13 12 11 9 7 6 6 5
32 32 31 30 29 30 32 33 34 36 35 35 35 37 39 41 42 42 42 41 38 36 35 35 36 37 37 36 36 36 35 35 34 33 32 30 29 29 30 31 32 32 29 22 21 23 22 21 21 21 22 24 22 21 22 23 23 22 21 21 22 21 20 19 17 16 15 13 12 11 9 7 6 6
31 30 30 29 27 27 28 29 30 32 33 33 34 34 34 35 37 40 43 43 41 39 37 36 36 37 37 37 37 37 36 35 34 33 32 30 29 28 27 27 28 29 27 23 23 23 23 24 24 24 25 26 24 23 23 25 25 24 23 23 23 22 21 21 19 17 15 14 14 13 11 9 8 7
33 34 32 30 29 29 29 30 30 30 30 32 33 33 32 31 32 35 39 43 43 42 41 40 39 38 37 36 37 37 36 34 34 33 31 30 29 29 28 28 28 29 28 27 26 26 25 26 27 27 28 29 28 28 27 26 25 26 26 24 23 22 22 22 20 19 17 16 16 15 14 12 10 9
35 36 36 34 33 33 33 33 33 33 32 31 32 34 34 33 32 33 35 39 42 44 44 44 44 43 42 41 40 40 38 37 35 33 32 31 31 31 32 31 31 32 31 31 30 30 28 28 28 28 29 29 30 31 30 28 26 25 25 25 25 25 24 23 22 21 20 19 19 17 15 13 12 11
35 35 36 37 38 37 37 36 37 37 36 34 33 34 36 36 36 35 35 36 39 43 45 45 46 46 45 44 43 43 42 41 40 39 37 36 35 34 34 35 35 35 34 34 33 32 31 30 29 29 29 29 30 31 31 30 28 26 27 27 26 25 24 25 24 24 23 22 21 19 18 16 14 13
31 31 33 36 39 39 38 38 38 39 39 39 38 36 36 38 39 39 38 38 39 41 43 45 46 46 45 44 44 44 44 45 44 43 41 40 39 38 37 37 38 38 37 36 35 33 32 31 30 29 29 30 30 30 30 30 29 28 29 28 27 26 27 27 26 25 25 24 22 21 21 19 17 15
28 28 30 33 36 38 38 37 38 38 39 41 42 41 39 40 41 41 41 41 42 43 43 44 45 46 45 45 45 44 44 44 44 43 41 41 41 40 39 39 39 39 38 37 36 34 33 31 29 30 30 30 30 30 30 30 30 29 29 29 29 28 29 29 28 27 26 25 23 23 23 22 19 17
28 29 30 31 32 36 37 38 38 38 38 40 44 44 43 42 42 43 44 45 46 47 46 46 47 47 46 47 46 45 45 44 43 41 40 40 40 39 39 41 41 39 38 38 36 35 33 32 30 30 30 30 29 29 30 31 31 29 28 29 29 30 30 30 30 29 28 27 26 26 25 24 21 18
30 32 32 31 30 32 36 38 38 38 38 38 40 42 42 42 43 44 44 44 46 46 47 49 50 49 49 48 47 46 46 45 43 41 40 40 39 38 39 40 40 38 37 37 37 35 34 33 31 29 30 30 30 30 30 31 32 32 30 29 30 31 32 32 32 32 30 30 28 26 25 25 23 20
33 34 33 32 30 30 32 34 36 37 37 37 37 37 38 39 40 41 41 40 40 41 42 44 45 47 49 50 50 48 47 46 44 42 41 40 40 40 40 40 39 38 37 37 37 35 35 33 30 29 30 31 32 33 32 32 33 33 33 32 32 32 33 32 32 32 32 32 30 27 25 25 25 22
35 35 34 33 31 30 30 31 31 32 33 35 37 37 37 37 37 38 39 40 40 41 41 41 40 41 43 45 48 49 48 45 43 42 41 40 40 40 40 41 41 39 38 37 36 35 35 34 32 31 32 33 34 36 36 34 33 33 34 34 33 33 33 33 33 33 34 34 33 31 29 28 28 25
38 36 34 33 32 32 32 31 30 30 30 32 35 38 39 39 39 38 38 40 43 45 46 45 44 43 41 40 41 44 46 45 43 42 41 40 39 39 40 41 41 40 39 38 37 35 34 34 34 34 34 34 36 39 39 37 35 34 34 34 34 34 34 35 35 36 35 35 35 36 34 32 30 26
40 39 38 36 34 34 35 34 33 33 32 32 34 37 39 40 41 40 38 39 43 47 49 49 48 46 44 41 39 38 40 40 40 40 39 39 38 38 39 39 38 37 36 37 37 36 35 35 35 36 36 37 39 41 41 40 38 37 35 34 34 35 36 37 38 38 38 38 38 38 37 34 31 27
41 42 42 41 39 39 40 40 39 37 35 34 34 36 38 40 42 42 40 40 42 44 47 49 50 48 46 43 40 38 36 35 34 34 35 36 37 38 37 36 36 35 34 34 35 36 37 37 38 39 40 41 42 42 41 40 39 39 37 34 33 33 35 37 39 40 40 40 39 38 36 33 30 26
39 41 43 43 43 43 44 45 44 41 38 36 35 34 35 37 39 39 40 40 43 45 45 46 47 48 47 44 41 38 33 30 30 31 32 34 36 36 36 37 39 39 39 38 38 38 39 41 43 44 43 42 41 41 40 39 39 41 42 40 36 34 34 35 36 38 40 41 40 38 36 33 31 28
35 36 38 40 40 41 42 44 45 42 39 38 36 35 34 35 37 38 39 40 43 47 48 47 45 43 43 44 42 37 31 29 31 33 33 33 35 35 36 38 40 40 40 41 41 41 41 41 42 43 43 41 38 38 39 40 41 43 45 43 40 37 35 34 33 33 36 40 40 39 36 34 32 30
29 28 30 32 34 36 38 40 41 39 37 37 37 37 37 37 38 38 39 41 44 48 50 52 50 45 41 37 31 30 31 33 34 35 34 34 35 36 37 39 40 40 40 41 42 42 41 40 40 41 42 41 39 38 40 42 42 42 44 44 42 39 35 33 32 31 33 38 41 39 36 35 33 33
27 24 24 25 27 30 32 34 36 36 36 36 37 37 37 38 38 37 37 41 46 47 49 51 50 46 42 35 25 22 29 35 35 35 36 37 37 37 38 38 39 39 40 41 42 41 40 39 39 39 40 41 41 41 41 42 41 39 40 42 42 39 36 34 31 29 32 38 40 38 38 38 37 35
27 26 25 25 25 27 29 31 33 36 37 38 38 37 36 37 37 36 37 41 44 46 48 49 47 43 43 39 32 27 31 36 35 34 34 35 36 38 39 39 39 39 39 40 40 39 38 39 40 39 39 41 43 42 42 42 40 39 39 39 39 39 38 34 29 27 30 37 38 36 37 39 37 34
27 27 28 27 26 27 28 30 33 35 37 39 39 38 37 36 36 37 39 41 42 44 46 46 44 41 40 40 38 35 34 35 36 35 34 34 36 37 37 38 39 40 40 40 40 39 38 38 40 40 41 42 42 43 42 42 41 40 39 38 38 39 38 33 28 24 28 36 39 38 38 39 37 33
Wind_Direction
197 214 227 219 202 195 206 210 208 243 250 221 199 177 216 240 190 153 179 168 149 156 207 225 265 336 355 357 356 358 336 325 335 336 336 350 359 359 4 10 13 14 15 15 14 13 13 13 12 13 13 15 14 13 12 11 11 11 12 13 14 14 14 14 15 14 13 12 12 14 17 21 23 23
190 197 217 248 232 207 213 210 212 254 261 245 214 186 219 252 203 190 203 184 181 196 179 193 339 349 355 353 347 340 311 308 326 340 335 341 351 352 357 3 5 6 8 9 8 7 8 6 6 8 9 12 13 11 10 10 10 9 9 11 12 13 14 14 15 15 15 15 14 14 17 21 24 26
199 193 194 220 228 216 216 209 218 255 264 254 211 184 218 244 214 205 213 211 233 211 187 231 349 349 340 333 318 290 281 303 328 336 329 335 346 346 349 354 356 358 359 1 2 0 0 0 0 2 4 7 9 9 9 8 9 9 8 9 10 12 13 13 15 16 17 17 16 15 17 20 23 26
215 218 205 213 219 213 212 202 197 234 262 256 217 197 218 235 225 218 217 223 239 225 220 251 271 244 268 294 296 286 290 309 320 320 321 329 338 337 339 343 346 348 349 352 354 353 353 354 354 357 359 2 5 7 7 7 8 8 7 8 9 10 12 13 14 17 18 18 17 17 18 19 20 24
215 233 226 224 226 220 217 207 194 207 245 250 238 224 223 230 234 232 234 245 249 240 239 249 251 248 259 268 278 287 293 297 297 304 314 324 329 325 324 329 334 338 340 343 346 347 348 348 349 353 356 358 1 3 4 5 8 9 7 6 8 9 11 12 13 16 18 19 18 17 18 19 19 20
211 224 229 230 233 231 227 218 207 204 224 243 250 248 240 235 230 231 245 257 258 257 253 253 254 253 263 276 275 273 278 287 295 303 316 331 330 316 309 315 324 328 330 335 338 340 342 344 346 351 353 354 356 358 2 3 5 8 6 5 6 8 10 11 12 15 18 19 18 18 18 18 18 18
218 221 228 231 231 235 237 234 225 215 214 226 237 245 254 256 247 245 254 260 264 265 260 257 260 259 261 263 259 262 276 292 305 311 318 321 312 300 297 305 318 321 321 325 329 333 338 340 342 347 350 353 354 354 358 2 4 5 4 3 4 7 10 11 11 14 17 19 19 18 18 18 17 17
232 231 234 236 233 234 238 241 239 229 219 219 223 227 237 240 237 236 243 253 263 265 262 261 264 265 264 263 266 273 280 286 294 300 304 304 303 296 288 295 310 315 311 314 319 326 333 334 337 344 348 352 354 352 354 358 2 3 1 1 3 5 9 11 10 13 15 18 19 18 18 17 15 15
237 239 240 241 238 236 238 240 242 240 232 226 223 225 232 236 235 231 229 234 246 258 263 264 264 267 272 276 281 284 286 287 286 283 284 293 299 298 288 289 301 306 302 306 315 322 327 327 332 340 344 348 351 350 350 354 358 360 358 360 2 3 8 11 10 11 13 16 19 19 18 17 15 14
238 242 244 243 242 241 242 243 243 243 241 239 233 228 232 240 243 243 242 243 246 251 259 263 266 270 275 282 288 293 298 296 290 286 287 288 286 284 283 286 294 301 303 309 314 318 321 324 329 335 338 341 344 344 346 349 352 355 356 358 2 2 5 10 10 10 12 15 18 19 18 17 15 15
243 247 250 250 247 246 246 246 246 241 240 246 247 238 233 238 243 244 247 254 255 256 260 265 270 274 278 285 293 298 297 289 287 291 296 298 294 283 276 280 292 303 307 312 315 315 318 321 323 327 331 335 338 339 342 346 347 349 353 357 360 360 2 8 10 9 11 14 16 18 17 17 16 15
244 246 251 254 254 254 255 254 252 246 240 245 252 252 244 241 244 245 244 246 252 259 266 270 273 277 278 277 272 266 263 269 280 286 290 296 301 290 280 282 291 300 305 310 313 312 313 315 315 318 323 329 333 334 336 341 344 346 350 355 357 356 357 4 9 9 12 14 16 17 16 15 16 16
246 245 246 249 254 258 263 266 265 261 253 248 250 254 252 247 247 250 250 247 245 248 254 259 261 263 263 262 264 268 273 281 287 286 282 287 289 282 281 285 285 290 297 301 302 304 306 308 309 312 317 321 325 326 326 330 336 341 346 350 352 351 351 359 7 10 13 16 18 18 16 14 14 15
245 247 247 248 249 252 258 265 268 269 267 260 254 252 252 251 250 250 250 251 251 249 248 251 254 257 260 264 267 274 282 288 291 286 283 290 294 282 280 284 284 287 292 291 290 296 301 303 305 308 311 314 316 316 316 316 322 331 339 343 345 344 344 352 3 9 13 16 21 21 17 14 13 12
245 246 247 250 251 251 252 256 261 264 267 267 265 261 256 253 253 252 252 254 256 256 255 255 256 258 262 265 265 265 270 272 273 272 270 274 276 270 274 282 285 289 294 288 282 288 296 299 301 304 305 305 308 310 311 313 316 325 334 338 339 338 338 345 357 6 11 13 21 26 19 14 13 11
250 249 249 251 253 254 255 256 258 260 261 263 266 267 266 262 259 257 258 259 261 261 261 260 259 259 261 263 261 260 261 259 258 258 258 261 265 269 276 282 286 291 293 286 281 287 295 296 295 299 298 296 302 307 310 313 317 322 328 332 335 335 333 339 350 1 7 9 17 29 23 16 16 12
254 254 254 254 254 255 256 258 262 265 265 265 267 271 273 272 267 263 260 260 261 262 262 261 261 261 261 261 263 264 263 261 262 264 267 271 274 277 280 282 286 289 289 285 285 291 299 299 296 298 292 288 296 302 304 311 315 318 322 327 334 337 333 334 344 354 360 3 12 24 25 20 23 16
256 257 258 258 259 258 257 257 260 265 270 271 272 273 273 273 272 268 264 261 260 261 261 261 262 264 264 264 268 271 269 268 269 271 275 279 281 282 282 282 282 282 284 287 285 288 298 302 298 296 286 281 291 297 300 306 309 310 316 320 327 335 334 331 336 346 352 356 5 16 19 21 31 24
251 255 258 261 263 264 264 262 259 261 265 269 270 271 271 272 273 272 272 270 267 266 265 265 267 269 269 269 271 273 272 272 274 276 279 281 281 281 280 279 279 280 286 290 285 285 296 300 294 293 284 277 285 291 295 299 299 302 308 311 315 326 330 329 329 334 342 349 359 8 5 12 33 33
251 252 253 257 260 262 265 266 264 261 261 263 266 268 268 270 271 274 276 276 273 271 269 269 269 271 272 272 273 273 272 272 274 275 276 276 277 277 278 279 283 287 292 294 286 283 291 296 292 286 275 273 280 283 285 289 290 295 301 303 306 316 323 324 322 322 330 340 350 360 357 358 24 33
258 257 255 256 257 258 260 263 265 265 262 260 261 263 265 268 270 274 278 279 279 277 273 271 270 269 270 270 270 269 267 267 268 267 265 266 268 270 272 275 280 284 288 290 283 277 282 289 289 281 272 273 277 275 278 283 286 290 295 296 299 308 315 319 317 312 315 327 335 347 351 350 1 6
264 263 261 261 260 261 261 261 262 264 263 262 260 259 260 263 266 270 273 276 279 280 278 275 273 271 270 269 267 265 262 261 260 258 258 261 262 261 262 268 274 278 281 283 279 274 276 280 282 277 269 267 270 273 276 280 283 287 292 293 295 301 308 314 314 305 302 310 321 328 333 339 341 302
265 266 265 265 265 266 267 267 265 264 262 262 262 260 259 260 262 265 267 268 271 275 275 273 272 270 270 270 269 267 265 263 260 258 259 260 260 259 262 266 268 270 274 279 280 274 273 275 276 270 259 256 265 274 274 274 277 284 289 290 291 295 301 307 310 303 296 298 307 313 316 321 326 315
263 266 267 267 268 269 271 272 272 270 267 264 263 261 259 259 262 264 265 264 265 266 268 269 269 268 268 269 269 268 267 266 264 263 262 261 260 260 262 265 265 265 271 279 278 270 266 266 267 264 258 255 263 272 275 276 277 280 285 288 288 290 294 297 300 300 296 294 295 300 303 307 317 327
261 263 266 268 270 272 273 275 275 275 272 269 265 262 261 262 264 265 265 265 265 264 263 264 265 265 265 265 265 265 266 266 266 265 264 262 262 262 262 263 264 265 269 274 273 269 267 264 261 259 258 257 260 268 275 277 277 279 282 284 284 286 289 289 290 294 295 291 287 288 291 294 301 310
262 264 265 266 267 268 271 275 277 277 277 274 270 268 267 267 266 265 265 265 264 262 261 261 261 261 262 261 262 263 265 266 266 266 264 262 261 262 263 263 263 264 267 271 272 268 263 261 260 257 255 255 258 262 267 271 275 277 277 278 279 282 283 281 280 283 287 286 281 278 281 282 281 283
264 266 266 264 259 256 258 262 266 271 274 275 274 274 274 271 268 266 265 264 261 259 259 257 256 257 259 260 260 261 262 263 264 266 267 267 267 266 265 265 265 266 269 272 272 267 258 254 254 253 252 254 256 256 259 266 273 274 275 277 280 279 277 274 272 272 276 279 276 272 273 273 268 267
263 264 265 263 258 253 252 253 254 258 263 267 271 273 274 273 270 266 263 262 261 259 257 255 254 253 254 255 257 259 259 260 262 264 266 267 269 270 270 269 270 271 272 271 271 270 265 258 253 252 252 255 257 258 260 262 267 272 276 276 274 272 273 273 271 269 271 273 272 270 270 270 265 263
262 262 262 262 260 259 258 256 254 255 256 258 262 267 271 271 269 265 262 261 259 258 257 256 255 253 252 252 254 256 257 257 258 259 259 258 260 263 266 267 267 266 267 267 267 268 265 262 259 258 257 257 259 261 264 263 263 265 269 270 271 275 276 273 271 271 272 273 273 272 270 267 261 261
262 261 259 258 257 260 263 263 262 260 258 256 255 258 263 267 266 263 262 260 258 257 257 257 257 257 256 256 256 256 255 255 254 255 255 254 254 255 258 261 262 262 263 264 265 266 265 263 262 260 259 260 261 262 265 266 264 261 262 264 267 269 270 268 267 266 267 271 276 277 275 272 267 262
265 266 262 257 255 256 259 263 264 262 259 257 255 253 253 258 261 263 263 263 261 260 259 259 259 259 258 258 258 257 255 255 257 256 255 254 254 253 253 254 257 260 263 264 264 265 266 265 263 260 259 261 263 265 266 265 264 262 260 259 258 258 262 264 262 259 261 264 269 272 272 273 273 268
268 268 264 258 256 255 254 254 256 256 256 255 255 254 252 253 257 261 263 264 264 263 262 261 261 260 258 256 256 256 256 256 257 258 256 254 254 254 252 251 253 256 260 262 263 263 265 265 264 263 263 263 264 266 267 265 264 262 258 256 255 256 259 261 258 257 258 257 260 265 268 269 271 268
267 264 261 256 255 254 252 250 250 253 255 255 255 256 255 254 255 258 260 263 264 264 262 261 260 258 256 255 254 254 254 255 255 255 255 255 255 254 252 251 252 253 254 256 258 260 262 264 263 263 265 265 263 264 265 265 264 262 257 254 254 254 255 257 257 255 253 252 256 262 263 264 266 262
262 262 260 257 256 255 253 252 251 252 253 255 257 259 259 258 258 259 261 264 265 263 261 260 259 257 255 254 253 252 252 253 253 252 252 253 254 253 251 251 251 252 251 252 254 256 259 261 262 262 262 262 262 262 263 263 263 262 259 255 254 254 254 253 253 252 253 255 257 258 258 261 263 260
261 262 260 257 257 259 258 255 254 252 251 253 255 257 260 263 264 265 266 265 264 263 261 259 258 256 254 253 252 251 251 252 251 250 250 251 251 251 250 250 250 250 251 251 252 254 254 255 256 254 253 255 257 258 260 262 263 262 259 256 254 253 252 249 247 247 251 256 256 252 250 256 260 259
260 261 260 256 256 260 263 263 261 257 254 254 254 254 256 260 262 265 268 268 265 263 264 264 261 259 256 254 252 251 250 250 250 249 248 247 248 248 249 250 251 251 251 252 253 253 252 251 250 248 248 251 253 256 261 266 266 262 259 257 256 253 249 246 243 244 249 254 253 249 248 252 257 258
263 262 262 260 257 258 262 267 270 269 264 259 256 254 255 258 260 263 266 267 267 265 263 264 264 262 260 259 256 253 250 249 249 249 248 247 247 248 248 249 250 250 251 252 253 253 250 249 248 248 248 248 249 255 264 270 268 262 258 256 255 254 249 244 242 244 247 250 250 249 251 252 253 253
265 265 265 265 263 262 264 268 273 276 275 268 260 257 259 262 263 263 260 260 265 267 264 261 261 260 258 257 257 255 252 250 249 249 249 249 248 248 250 251 253 253 253 253 254 254 252 250 249 249 249 247 247 254 263 267 266 266 266 260 255 253 250 246 245 246 247 247 247 248 250 251 251 250
261 263 265 264 263 264 267 270 274 277 278 273 265 263 263 263 264 266 264 262 265 269 266 261 258 257 254 253 253 253 253 252 251 251 252 252 250 250 251 253 254 255 254 254 254 253 251 249 248 248 249 250 253 258 263 265 266 270 273 268 259 254 251 250 250 248 246 244 243 241 242 245 247 245
256 258 261 263 264 266 269 271 274 276 278 275 269 265 264 264 267 272 274 273 275 277 274 268 262 257 254 252 250 248 247 248 249 251 251 250 248 247 248 250 251 250 249 250 251 249 246 248 251 252 253 257 262 263 262 261 263 266 269 268 265 261 259 257 253 248 244 241 239 236 234 235 236 235
257 258 258 260 265 269 271 273 274 275 275 273 271 270 269 271 275 280 282 282 283 282 280 276 270 264 260 256 248 242 243 250 253 252 250 248 246 246 247 248 248 247 247 247 248 246 246 251 256 257 257 259 260 260 258 259 260 262 264 265 266 266 264 260 255 250 247 243 238 233 230 230 231 231
263 266 266 266 268 270 272 274 275 275 272 270 270 272 273 274 276 279 281 282 282 280 278 277 275 274 274 269 255 243 248 258 259 255 253 251 249 248 249 249 249 249 248 248 249 250 252 254 255 256 256 254 252 252 256 259 261 260 261 263 266 266 264 257 252 251 248 243 237 233 229 226 224 225
261 262 265 268 271 273 274 275 274 272 270 269 269 270 270 270 272 274 274 276 277 276 275 276 276 274 273 278 279 266 261 263 261 258 258 257 254 254 254 254 254 255 254 254 256 257 256 253 252 254 254 253 250 251 255 260 261 259 259 262 265 266 264 256 247 243 243 240 238 237 236 231 225 224
266 263 262 261 261 262 264 266 266 265 266 267 267 267 268 269 270 271 271 272 274 274 273 275 278 275 271 275 283 282 272 267 264 262 260 259 258 259 259 258 258 258 258 259 259 258 256 253 253 254 254 253 253 254 256 260 261 259 258 259 260 262 264 258 245 235 236 237 235 234 234 233 230 229
271 272 273 272 268 263 261 262 264 265 265 266 266 266 266 267 267 267 267 268 269 269 269 272 276 278 276 275 277 276 273 270 266 262 260 257 257 258 259 260 260 260 259 259 259 258 255 252 251 251 253 254 255 256 258 260 260 259 259 259 257 259 261 257 246 238 236 233 229 227 226 227 227 226